Time,TemperatureF,DewpointF,PressureIn,WindDirection,WindDirectionDegrees,WindSpeedMPH,WindSpeedGustMPH,Humidity,HourlyPrecipIn,Conditions,Clouds,dailyrainin,SolarRadiationWatts/m^2,SoftwareType,DateUTC
2013-02-13 00:02:00,5.0,1.0,-100.00,SSE,162,0.0,3.0,83,0.00,,,0.00,0.000000,,2013-02-13 07:02:00,
2013-02-13 00:11:00,5.0,1.0,-100.00,SSE,162,0.0,3.0,83,0.00,,,0.00,0.000000,,2013-02-13 07:11:00,
2013-02-13 00:21:00,5.0,1.0,-100.00,SSE,162,0.0,3.0,83,0.00,,,0.00,0.000000,,2013-02-13 07:21:00,
2013-02-13 00:42:00,4.0,0.0,-100.00,WNW,293,1.0,2.0,84,0.00,,,0.00,0.000000,,2013-02-13 07:42:00,
2013-02-13 00:52:00,4.0,0.0,-100.00,WNW,293,1.0,2.0,84,0.00,,,0.00,0.000000,,2013-02-13 07:52:00,
2013-02-13 01:01:00,4.0,0.0,-100.00,WNW,293,1.0,2.0,84,0.00,,,0.00,0.000000,,2013-02-13 08:01:00,
2013-02-13 01:11:00,4.0,0.0,-100.00,WNW,293,1.0,2.0,84,0.00,,,0.00,0.000000,,2013-02-13 08:11:00,
2013-02-13 01:21:00,4.0,0.0,-100.00,WNW,293,1.0,2.0,84,0.00,,,0.00,0.000000,,2013-02-13 08:21:00,
2013-02-13 01:43:00,2.0,-1.0,-100.00,ENE,77,0.0,2.0,88,0.00,,,0.00,0.000000,,2013-02-13 08:43:00,
2013-02-13 01:52:00,2.0,-1.0,-100.00,ENE,77,0.0,2.0,88,0.00,,,0.00,0.000000,,2013-02-13 08:52:00,
2013-02-13 02:01:00,2.0,-1.0,-100.00,ENE,77,0.0,2.0,88,0.00,,,0.00,0.000000,,2013-02-13 09:01:00,
2013-02-13 02:11:00,2.0,-1.0,-100.00,ENE,77,0.0,2.0,88,0.00,,,0.00,0.000000,,2013-02-13 09:11:00,
2013-02-13 02:21:00,2.0,-1.0,-100.00,ENE,77,0.0,2.0,88,0.00,,,0.00,0.000000,,2013-02-13 09:21:00,
2013-02-13 02:42:00,5.0,1.0,-100.00,West,271,1.0,3.0,84,0.00,,,0.00,0.000000,,2013-02-13 09:42:00,
2013-02-13 02:52:00,5.0,1.0,-100.00,West,271,1.0,3.0,84,0.00,,,0.00,0.000000,,2013-02-13 09:52:00,
2013-02-13 03:01:00,5.0,1.0,-100.00,West,271,1.0,3.0,84,0.00,,,0.00,0.000000,,2013-02-13 10:01:00,
2013-02-13 03:11:00,5.0,1.0,-100.00,West,271,1.0,3.0,84,0.00,,,0.00,0.000000,,2013-02-13 10:11:00,
2013-02-13 03:21:00,5.0,1.0,-100.00,West,271,1.0,3.0,84,0.00,,,0.00,0.000000,,2013-02-13 10:21:00,
2013-02-13 03:22:00,3.0,-1.0,-100.00,East,81,1.0,4.0,83,0.00,,,0.00,0.000000,,2013-02-13 10:22:00,
2013-02-13 03:42:00,3.0,-1.0,-100.00,East,81,1.0,4.0,83,0.00,,,0.00,0.000000,,2013-02-13 10:42:00,
2013-02-13 03:52:00,3.0,-1.0,-100.00,East,81,1.0,4.0,83,0.00,,,0.00,0.000000,,2013-02-13 10:52:00,
2013-02-13 04:01:00,3.0,-1.0,-100.00,East,81,1.0,4.0,83,0.00,,,0.00,0.000000,,2013-02-13 11:01:00,
2013-02-13 04:11:00,3.0,-1.0,-100.00,East,81,1.0,4.0,83,0.00,,,0.00,0.000000,,2013-02-13 11:11:00,
2013-02-13 04:42:00,4.0,1.0,-100.00,WSW,245,1.0,3.0,88,0.00,,,0.00,0.000000,,2013-02-13 11:42:00,
2013-02-13 04:52:00,4.0,1.0,-100.00,WSW,245,1.0,3.0,88,0.00,,,0.00,0.000000,,2013-02-13 11:52:00,
2013-02-13 05:02:00,4.0,1.0,-100.00,WSW,245,1.0,3.0,88,0.00,,,0.00,0.000000,,2013-02-13 12:02:00,
2013-02-13 05:11:00,4.0,1.0,-100.00,WSW,245,1.0,3.0,88,0.00,,,0.00,0.000000,,2013-02-13 12:11:00,
2013-02-13 05:21:00,4.0,1.0,-100.00,WSW,245,1.0,3.0,88,0.00,,,0.00,0.000000,,2013-02-13 12:21:00,
2013-02-13 05:42:00,3.0,1.0,-100.00,ESE,109,1.0,4.0,91,0.00,,,0.00,0.000000,,2013-02-13 12:42:00,
2013-02-13 05:52:00,3.0,1.0,-100.00,ESE,109,1.0,4.0,91,0.00,,,0.00,0.000000,,2013-02-13 12:52:00,
2013-02-13 06:02:00,3.0,1.0,-100.00,ESE,109,1.0,4.0,91,0.00,,,0.00,0.000000,,2013-02-13 13:02:00,
2013-02-13 06:11:00,3.0,1.0,-100.00,ESE,109,1.0,4.0,91,0.00,,,0.00,0.000000,,2013-02-13 13:11:00,
2013-02-13 06:21:00,3.0,1.0,-100.00,ESE,109,1.0,4.0,91,0.00,,,0.00,0.000000,,2013-02-13 13:21:00,
2013-02-13 06:42:00,3.0,1.0,-100.00,ESE,121,2.0,3.0,89,0.00,,,0.00,0.000000,,2013-02-13 13:42:00,
2013-02-13 06:52:00,3.0,1.0,-100.00,ESE,121,2.0,3.0,89,0.00,,,0.00,0.000000,,2013-02-13 13:52:00,
2013-02-13 07:01:00,3.0,1.0,-100.00,ESE,121,2.0,3.0,89,0.00,,,0.00,0.000000,,2013-02-13 14:01:00,
2013-02-13 07:11:00,3.0,1.0,-100.00,ESE,121,2.0,3.0,89,0.00,,,0.00,0.000000,,2013-02-13 14:11:00,
2013-02-13 07:21:00,3.0,1.0,-100.00,ESE,121,2.0,3.0,89,0.00,,,0.00,0.000000,,2013-02-13 14:21:00,
2013-02-13 07:42:00,4.0,1.0,-100.00,SSE,150,0.0,2.0,86,0.00,,,0.00,4.000000,,2013-02-13 14:42:00,
2013-02-13 07:52:00,4.0,1.0,-100.00,SSE,150,0.0,2.0,86,0.00,,,0.00,4.000000,,2013-02-13 14:52:00,
2013-02-13 08:01:00,4.0,1.0,-100.00,SSE,150,0.0,2.0,86,0.00,,,0.00,4.000000,,2013-02-13 15:01:00,
2013-02-13 08:11:00,4.0,1.0,-100.00,SSE,150,0.0,2.0,86,0.00,,,0.00,4.000000,,2013-02-13 15:11:00,
2013-02-13 08:21:00,4.0,1.0,-100.00,SSE,150,0.0,2.0,86,0.00,,,0.00,4.000000,,2013-02-13 15:21:00,
2013-02-13 08:42:00,6.0,2.0,-100.00,East,99,1.0,3.0,85,0.00,,,0.00,60.000000,,2013-02-13 15:42:00,
2013-02-13 08:52:00,6.0,2.0,-100.00,East,99,1.0,3.0,85,0.00,,,0.00,60.000000,,2013-02-13 15:52:00,
2013-02-13 09:01:00,6.0,2.0,-100.00,East,99,1.0,3.0,85,0.00,,,0.00,60.000000,,2013-02-13 16:01:00,
2013-02-13 09:11:00,6.0,2.0,-100.00,East,99,1.0,3.0,85,0.00,,,0.00,60.000000,,2013-02-13 16:11:00,
2013-02-13 09:21:00,6.0,2.0,-100.00,East,99,1.0,3.0,85,0.00,,,0.00,60.000000,,2013-02-13 16:21:00,
2013-02-13 09:42:00,22.0,6.0,-100.00,SSE,166,1.0,3.0,50,0.00,,,0.00,357.000000,,2013-02-13 16:42:00,
2013-02-13 09:52:00,22.0,6.0,-100.00,SSE,166,1.0,3.0,50,0.00,,,0.00,357.000000,,2013-02-13 16:52:00,
2013-02-13 10:01:00,22.0,6.0,-100.00,SSE,166,1.0,3.0,50,0.00,,,0.00,357.000000,,2013-02-13 17:01:00,
2013-02-13 10:11:00,22.0,6.0,-100.00,SSE,166,1.0,3.0,50,0.00,,,0.00,357.000000,,2013-02-13 17:11:00,
2013-02-13 10:21:00,22.0,6.0,-100.00,SSE,166,1.0,3.0,50,0.00,,,0.00,357.000000,,2013-02-13 17:21:00,
2013-02-13 10:22:00,21.0,2.0,-100.00,WNW,282,2.0,2.0,42,0.00,,,0.00,565.000000,,2013-02-13 17:22:00,
2013-02-13 10:42:00,21.0,2.0,-100.00,WNW,282,2.0,2.0,42,0.00,,,0.00,565.000000,,2013-02-13 17:42:00,
2013-02-13 10:52:00,21.0,2.0,-100.00,WNW,282,2.0,2.0,42,0.00,,,0.00,565.000000,,2013-02-13 17:52:00,
2013-02-13 11:02:00,21.0,2.0,-100.00,WNW,282,2.0,2.0,42,0.00,,,0.00,565.000000,,2013-02-13 18:02:00,
2013-02-13 11:11:00,21.0,2.0,-100.00,WNW,282,2.0,2.0,42,0.00,,,0.00,565.000000,,2013-02-13 18:11:00,
2013-02-13 11:42:00,27.0,5.0,-100.00,WNW,290,2.0,2.0,39,0.00,,,0.00,733.000000,,2013-02-13 18:42:00,
2013-02-13 11:52:00,27.0,5.0,-100.00,WNW,290,2.0,2.0,39,0.00,,,0.00,733.000000,,2013-02-13 18:52:00,
2013-02-13 12:01:00,27.0,5.0,-100.00,WNW,290,2.0,2.0,39,0.00,,,0.00,733.000000,,2013-02-13 19:01:00,
2013-02-13 12:11:00,27.0,5.0,-100.00,WNW,290,2.0,2.0,39,0.00,,,0.00,733.000000,,2013-02-13 19:11:00,
2013-02-13 12:21:00,27.0,5.0,-100.00,WNW,290,2.0,2.0,39,0.00,,,0.00,733.000000,,2013-02-13 19:21:00,
2013-02-13 12:42:00,22.0,6.0,-100.00,WNW,297,2.0,3.0,49,0.00,,,0.00,808.000000,,2013-02-13 19:42:00,
2013-02-13 12:52:00,22.0,6.0,-100.00,WNW,297,2.0,3.0,49,0.00,,,0.00,808.000000,,2013-02-13 19:52:00,
2013-02-13 13:02:00,22.0,6.0,-100.00,WNW,297,2.0,3.0,49,0.00,,,0.00,808.000000,,2013-02-13 20:02:00,
2013-02-13 13:11:00,22.0,6.0,-100.00,WNW,297,2.0,3.0,49,0.00,,,0.00,808.000000,,2013-02-13 20:11:00,
2013-02-13 13:21:00,22.0,6.0,-100.00,WNW,297,2.0,3.0,49,0.00,,,0.00,808.000000,,2013-02-13 20:21:00,
2013-02-13 13:42:00,23.0,7.0,-100.00,WNW,301,2.0,3.0,50,0.00,,,0.00,819.000000,,2013-02-13 20:42:00,
2013-02-13 13:52:00,23.0,7.0,-100.00,WNW,301,2.0,3.0,50,0.00,,,0.00,819.000000,,2013-02-13 20:52:00,
2013-02-13 14:01:00,23.0,7.0,-100.00,WNW,301,2.0,3.0,50,0.00,,,0.00,819.000000,,2013-02-13 21:01:00,
2013-02-13 14:11:00,23.0,7.0,-100.00,WNW,301,2.0,3.0,50,0.00,,,0.00,819.000000,,2013-02-13 21:11:00,
2013-02-13 14:21:00,23.0,7.0,-100.00,WNW,301,2.0,3.0,50,0.00,,,0.00,819.000000,,2013-02-13 21:21:00,
2013-02-13 14:52:00,25.0,8.0,-100.00,NNW,333,2.0,4.0,48,0.00,,,0.00,747.000000,,2013-02-13 21:52:00,
2013-02-13 15:02:00,25.0,8.0,-100.00,NNW,333,2.0,4.0,48,0.00,,,0.00,747.000000,,2013-02-13 22:02:00,
2013-02-13 15:11:00,25.0,8.0,-100.00,NNW,333,2.0,4.0,48,0.00,,,0.00,747.000000,,2013-02-13 22:11:00,
2013-02-13 15:21:00,25.0,8.0,-100.00,NNW,333,2.0,4.0,48,0.00,,,0.00,747.000000,,2013-02-13 22:21:00,
2013-02-13 15:42:00,29.0,10.0,-100.00,NNW,330,2.0,3.0,44,0.00,,,0.00,607.000000,,2013-02-13 22:42:00,
2013-02-13 15:52:00,29.0,10.0,-100.00,NNW,330,2.0,3.0,44,0.00,,,0.00,607.000000,,2013-02-13 22:52:00,
2013-02-13 16:01:00,29.0,10.0,-100.00,NNW,330,2.0,3.0,44,0.00,,,0.00,607.000000,,2013-02-13 23:01:00,
2013-02-13 16:11:00,29.0,10.0,-100.00,NNW,330,2.0,3.0,44,0.00,,,0.00,607.000000,,2013-02-13 23:11:00,
2013-02-13 16:21:00,29.0,10.0,-100.00,NNW,330,2.0,3.0,44,0.00,,,0.00,607.000000,,2013-02-13 23:21:00,
2013-02-13 16:42:00,24.0,10.0,-100.00,WSW,258,3.0,3.0,54,0.00,,,0.00,415.000000,,2013-02-13 23:42:00,
2013-02-13 16:52:00,24.0,10.0,-100.00,WSW,258,3.0,3.0,54,0.00,,,0.00,415.000000,,2013-02-13 23:52:00,
2013-02-13 17:02:00,24.0,10.0,-100.00,WSW,258,3.0,3.0,54,0.00,,,0.00,415.000000,,2013-02-14 00:02:00,
2013-02-13 17:11:00,24.0,10.0,-100.00,WSW,258,3.0,3.0,54,0.00,,,0.00,415.000000,,2013-02-14 00:11:00,
2013-02-13 17:21:00,24.0,10.0,-100.00,WSW,258,3.0,3.0,54,0.00,,,0.00,415.000000,,2013-02-14 00:21:00,
2013-02-13 17:42:00,21.0,10.0,-100.00,West,268,2.0,4.0,62,0.00,,,0.00,184.000000,,2013-02-14 00:42:00,
2013-02-13 17:52:00,21.0,10.0,-100.00,West,268,2.0,4.0,62,0.00,,,0.00,184.000000,,2013-02-14 00:52:00,
2013-02-13 18:42:00,15.0,9.0,-100.00,WNW,293,1.0,3.0,78,0.00,,,0.00,6.000000,,2013-02-14 01:42:00,
2013-02-13 18:52:00,15.0,9.0,-100.00,WNW,293,1.0,3.0,78,0.00,,,0.00,6.000000,,2013-02-14 01:52:00,
2013-02-13 20:02:00,17.0,11.0,-100.00,North,355,2.0,3.0,78,0.00,,,0.00,0.000000,,2013-02-14 03:02:00,
2013-02-13 20:11:00,17.0,11.0,-100.00,North,355,2.0,3.0,78,0.00,,,0.00,0.000000,,2013-02-14 03:11:00,
2013-02-13 20:21:00,17.0,11.0,-100.00,North,355,2.0,3.0,78,0.00,,,0.00,0.000000,,2013-02-14 03:21:00,
2013-02-13 20:42:00,14.0,11.0,-100.00,WSW,253,0.0,2.0,88,0.00,,,0.00,0.000000,,2013-02-14 03:42:00,
2013-02-13 20:52:00,14.0,11.0,-100.00,WSW,253,0.0,2.0,88,0.00,,,0.00,0.000000,,2013-02-14 03:52:00,
2013-02-13 21:01:00,14.0,11.0,-100.00,WSW,253,0.0,2.0,88,0.00,,,0.00,0.000000,,2013-02-14 04:01:00,
2013-02-13 21:12:00,14.0,11.0,-100.00,WSW,253,0.0,2.0,88,0.00,,,0.00,0.000000,,2013-02-14 04:12:00,
2013-02-13 21:21:00,14.0,11.0,-100.00,WSW,253,0.0,2.0,88,0.00,,,0.00,0.000000,,2013-02-14 04:21:00,
2013-02-13 21:42:00,14.0,11.0,-100.00,WSW,244,1.0,2.0,88,0.00,,,0.00,0.000000,,2013-02-14 04:42:00,
2013-02-13 21:52:00,14.0,11.0,-100.00,WSW,244,1.0,2.0,88,0.00,,,0.00,0.000000,,2013-02-14 04:52:00,
2013-02-13 22:02:00,14.0,11.0,-100.00,WSW,244,1.0,2.0,88,0.00,,,0.00,0.000000,,2013-02-14 05:02:00,
2013-02-13 22:11:00,14.0,11.0,-100.00,WSW,244,1.0,2.0,88,0.00,,,0.00,0.000000,,2013-02-14 05:11:00,
2013-02-13 22:21:00,14.0,11.0,-100.00,WSW,244,1.0,2.0,88,0.00,,,0.00,0.000000,,2013-02-14 05:21:00,
2013-02-13 22:42:00,12.0,10.0,-100.00,West,268,0.0,2.0,92,0.00,,,0.00,0.000000,,2013-02-14 05:42:00,
2013-02-13 22:52:00,12.0,10.0,-100.00,West,268,0.0,2.0,92,0.00,,,0.00,0.000000,,2013-02-14 05:52:00,
2013-02-13 23:02:00,12.0,10.0,-100.00,West,268,0.0,2.0,92,0.00,,,0.00,0.000000,,2013-02-14 06:02:00,
2013-02-13 23:11:00,12.0,10.0,-100.00,West,268,0.0,2.0,92,0.00,,,0.00,0.000000,,2013-02-14 06:11:00,
2013-02-13 23:21:00,12.0,10.0,-100.00,West,268,0.0,2.0,92,0.00,,,0.00,0.000000,,2013-02-14 06:21:00,
2013-02-13 23:42:00,12.0,10.0,-100.00,South,182,0.0,2.0,91,0.00,,,0.00,0.000000,,2013-02-14 06:42:00,
2013-02-13 23:52:00,12.0,10.0,-100.00,South,182,0.0,2.0,91,0.00,,,0.00,0.000000,,2013-02-14 06:52:00,